SCP
0 0 0 0 0 0 0 0 0 0 0 0 0 0 0 0 0 0 0 0 0 0 0 0 0 0 0 0 0 0 0 0 0 0 0 0 0 0 0 0 0 0 0 0 0 0 0 0 0
0 0 0 0 0 0 0 0 0 0 0 0 0 0 0 0 0 0 0 0 0 0 0 0 0 0 0 0 0 0 0 0 0 0 0 0 0 0 0 0 0 0 0 0 0 0 0 0 0
0 0 0 0 0 0 0 0 0 0 0 0 0 0 0 0 0 0 0 0 0 0 0 0 0 0 0 0 0 0 0 0 0 0 0 0 0 0 0 0 0 0 0 0 0 0 0 0 0
0 0 0 0 0 0 0 0 0 0 0 0 0 0 0 0 0 0 0 0 0 0 0 0 0 0 0 0 0 0 0 0 0 0 0 0 0 0 0 0 0 0 0 0 0 0 0 0 0
0 0 0 0 0 0 0 0 0 0 0 0 0 0 0 0 0 0 0 0 0 0 0 0 0 0 0 0 0 0 0 0 0 0 0 0 0 0 0 0 0 0 0 0 0 0 0 0 0
0 0 0 0 0 0 0 0 0 0 0 0 0 0 0 0 0 0 0 0 0 0 0 0 0 0 0 0 0 0 0 0 0 0 0 0 0 0 0 0 0 0 0 0 0 0 0 0 0
0 0 0 0 0 0 0 0 0 0 0 0 0 0 0 0 0 0 0 0 0 0 0 0 0 0 0 0 0 0 0 0 0 0 0 0 0 0 0 0 0 0 0 0 0 0 0 0 0
0 0 0 0 0 0 0 0 0 0 0 0 0 0 0 0 0 0 0 0 0 0 0 0 0 0 0 0 0 0 0 0 0 0 0 0 0 0 0 0 0 0 0 0 0 0 0 0 0
0 0 0 0 0 0 0 0 0 0 0 0 0 0 0 0 0 0 0 0 0 0 0 0 0 0 0 0 0 0 0 0 0 0 0 0 0 0 0 0 0 0 0 0 0 0 0 0 0
0 0 0 0 0 0 0 0 0 0 0 0 0 0 0 0 0 0 0 0 0 0 0 0 0 0 0 0 0 0 0 0 0 0 0 0 0 0 0 0 0 0 0 0 0 0 0 0 0
0 0 0 0 0 0 0 0 0 0 0 0 0 0 0 0 0 0 0 0 0 0 0 0 0 0 0 0 0 0 0 0 0 0 0 0 0 0 0 0 0 0 0 0 0 0 0 0 0
0 0 0 0 0 0 0 0 0 0 0 0 0 0 0 0 0 0 0 0 0 0 0 0 0 0 0 0 0 0 0 0 0 0 0 0 0 0 0 0 0 0 0 0 0 0 0 0 0
0 0 0 0 0 0 0 0 0 0 0 0 0 0 0 0 0 0 0 0 0 0 0 0 0 0 0 0 0 0 0 0 0 0 0 0 0 0 0 0 0 0 0 0 0 0 0 0 0
0 0 0 0 0 0 0 0 0 0 0 0 0 0 0 0 0 0 0 0 0 0 0 0 0 0 0 0 0 0 0 0 0 0 0 0 0 0 0 0 0 0 0 0 0 0 0 0 0
0 0 0 0 0 0 0 0 0 0 0 0 0 0 0 0 0 0 0 0 0 0 0 0 0 0 0 0 0 0 0 0 0 0 0 0 0 0 0 0 0 0 0 0 0 0 0 0 0
0 0 0 0 0 0 0 0 0 0 0 0 0 0 0 0 0 0 0 0 0 0 0 0 0 0 0 0 0 0 0 0 0 0 0 0 0 0 0 0 0 0 0 0 0 0 0 0 0
0 0 0 0 0 0 0 0 0 0 0 0 0 0 0 0 0 0 0 0 0 0 0 0 0 0 0 0 0 0 0 0 0 0 0 0 0 0 0 0 0 0 0 0 0 0 0 0 0
0 0 0 0 0 0 0 0 0 0 0 0 0 0 0 0 0 0 0 0 0 0 0 0 0 0 0 0 0 0 0 0 0 0 0 0 0 0 0 0 0 0 0 0 0 0 0 0 0
0 0 0 0 0 0 0 0 0 0 0 0 0 0 0 0 0 0 0 0 0 0 0 0 0 0 0 0 0 0 0 0 0 0 0 0 0 0 0 0 0 0 0 0 0 0 0 0 0
0 0 0 0 0 0 0 0 0 0 0 0 0 0 0 0 0 0 0 0 0 0 0 0 0 0 0 0 0 0 0 0 0 0 0 0 0 0 0 0 0 0 0 0 0 0 0 0 0
0 0 0 0 0 0 0 0 0 0 0 0 0 0 0 0 0 0 0 0 0 0 0 0 0 0 0 0 0 0 0 0 0 0 0 0 0 0 0 0 0 0 0 0 0 0 0 0 0
0 0 0 0 0 0 0 0 0 0 0 0 0 0 0 0 0 0 0 0 0 0 0 0 0 0 0 0 0 0 0 0 0 0 0 0 0 0 0 0 0 0 0 0 0 0 0 0 0
0 0 0 0 0 0 0 0 0 0 0 0 0 0 0 0 0 0 0 0 0 0 0 0 0 0 0 0 0 0 0 0 0 0 0 0 0 0 0 0 0 0 0 0 0 0 0 0 0
0 0 0 0 0 0 0 0 0 0 0 0 0 0 0 0 0 0 0 0 0 0 0 0 0 0 0 0 0 0 0 0 0 0 0 0 0 0 0 0 0 0 0 0 0 0 0 0 0
0 0 0 0 0 0 0 0 0 0 0 0 0 0 0 0 0 0 0 0 0 0 0 0 0 0 0 0 0 0 0 0 0 0 0 0 0 0 0 0 0 0 0 0 0 0 0 0 0
0 0 0 0 0 0 0 0 0 0 0 0 0 0 0 0 0 0 0 0 0 0 0 0 0 0 0 0 0 0 0 0 0 0 0 0 0 0 0 0 0 0 0 0 0 0 0 0 0
0 0 0 0 0 0 0 0 0 0 0 0 0 0 0 0 0 0 0 0 0 0 0 0 0 0 0 0 0 0 0 0 0 0 0 0 0 0 0 0 0 0 0 0 0 0 0 0 0
0 0 0 0 0 0 0 0 0 0 0 0 0 0 0 0 0 0 0 0 0 0 0 0 0 0 0 0 0 0 0 0 0 0 0 0 0 0 0 0 0 0 0 0 0 0 0 0 0
0 0 0 0 0 0 0 0 0 0 0 0 0 0 0 0 0 0 0 0 0 0 0 0 0 0 0 0 0 0 0 0 0 0 0 0 0 0 0 0 0 0 0 0 0 0 0 0 0
0 0 0 0 0 0 0 0 0 0 0 0 0 0 0 0 0 0 0 0 0 0 0 0 0 0 0 0 0 0 0 0 0 0 0 0 0 0 0 0 0 0 0 0 0 0 0 0 0
Wind_Speed
3 2 3 3 5 5 7 4 3 4 3 1 1 2 1 0 1 4 4 4 5 7 7 7 5 7 8 8 7 7 7 7 7 7 7 7 7 7 7 7 8 8 8 9 9 9 10 11 11
2 2 3 4 6 8 6 5 6 3 2 4 3 2 2 2 3 4 4 4 6 7 6 7 6 6 7 7 7 7 7 7 7 7 7 7 7 7 7 7 7 8 8 8 9 9 10 10 11
2 3 3 4 7 8 5 5 4 3 3 4 3 1 0 2 3 3 3 6 6 7 6 7 6 6 6 6 6 6 6 6 6 6 7 7 7 7 6 6 6 7 7 8 8 9 9 10 10
3 3 3 6 9 7 4 3 3 5 5 3 3 4 3 3 2 2 5 6 7 7 6 7 5 6 6 6 6 6 6 6 5 5 6 6 7 7 7 6 6 6 7 7 8 8 9 9 9
3 4 6 8 9 5 4 2 5 5 5 4 4 3 4 3 2 4 6 7 7 6 5 7 5 6 6 6 5 5 5 5 5 5 5 5 6 6 6 6 6 6 6 7 7 8 8 8 8
4 4 8 10 9 6 5 4 5 5 4 4 4 3 4 4 4 5 6 6 6 6 5 6 5 5 5 5 5 5 5 5 5 4 4 4 5 5 5 5 5 5 6 7 7 7 7 8 8
5 5 8 9 8 7 5 4 6 5 5 4 3 4 4 4 4 5 6 6 5 5 4 4 5 4 4 4 5 4 4 4 5 5 4 4 4 4 4 5 5 5 5 6 7 7 7 7 7
3 4 7 9 9 7 4 4 3 4 3 2 3 4 4 5 6 6 6 5 5 4 3 3 3 3 4 4 4 4 4 4 5 5 5 4 4 3 3 4 5 5 5 6 6 6 6 6 6
4 7 9 9 8 5 4 5 2 1 3 3 2 1 3 7 8 7 6 5 4 3 3 3 2 2 2 2 4 4 4 4 4 4 4 2 2 2 2 3 4 4 5 5 5 6 6 5 6
5 8 8 4 3 3 4 4 3 4 5 4 4 3 4 8 9 8 7 6 5 4 3 2 2 2 2 2 2 2 2 2 2 2 2 1 1 1 1 3 3 3 4 4 4 4 5 3 3
4 6 4 3 2 2 3 3 4 6 6 5 5 5 7 8 8 8 7 6 5 4 3 2 2 2 2 1 1 1 1 1 1 1 1 1 1 1 1 1 2 3 3 3 4 4 3 3 2
3 4 4 3 2 3 3 3 4 6 4 1 3 4 8 9 9 8 8 7 5 4 4 2 2 2 2 1 1 1 1 0 0 1 1 1 1 1 1 1 2 2 2 2 2 2 3 3 3
6 4 3 3 2 3 3 5 5 7 5 3 3 5 7 8 8 7 6 6 6 5 4 3 3 2 2 1 1 1 0 0 0 0 1 1 1 2 2 1 2 2 2 2 2 3 3 3 3
3 4 4 4 4 3 5 6 6 6 5 5 5 6 7 7 7 7 6 6 6 5 4 3 3 2 2 2 1 1 1 1 1 0 1 1 2 2 2 2 2 2 2 2 2 3 3 3 2
3 4 4 4 5 3 4 8 9 6 5 6 6 6 7 6 6 7 7 6 5 5 4 3 3 3 2 2 2 1 1 1 1 1 1 1 1 2 2 2 2 2 2 3 3 3 3 3 3
3 5 6 3 4 4 6 10 5 3 6 8 7 6 6 6 6 6 5 5 5 4 4 4 3 3 3 2 2 1 1 1 1 1 1 2 2 2 2 2 2 2 2 3 3 3 3 3 3
5 6 7 4 3 4 8 10 4 3 6 8 7 7 7 6 5 5 5 5 4 4 4 4 4 3 3 3 2 2 1 1 1 1 1 1 2 2 2 2 2 2 2 3 3 3 3 4 3
6 6 6 7 3 5 9 12 8 6 7 8 7 7 7 6 5 4 4 4 4 4 4 4 4 3 3 2 2 1 1 1 1 0 0 1 1 2 2 2 2 3 2 3 3 4 3 3 3
4 6 7 5 3 6 11 13 11 8 8 8 8 7 7 6 4 4 4 4 4 4 4 4 4 3 3 2 2 2 2 1 1 1 1 1 1 1 2 2 2 2 3 3 4 3 4 3 3
6 7 7 5 3 6 9 14 11 9 10 9 9 8 7 6 5 4 4 4 4 4 4 4 4 4 4 2 2 1 1 1 1 1 1 1 1 1 1 2 2 2 2 3 4 3 3 3 3
7 8 7 6 5 5 8 11 8 6 7 8 8 7 7 7 7 6 5 5 4 4 4 4 4 4 4 3 2 2 1 1 1 1 1 1 1 2 2 3 2 2 3 3 4 4 4 4 3
6 5 6 6 6 5 5 8 6 6 7 8 8 7 7 6 6 6 5 5 5 4 4 4 4 4 4 4 4 4 3 2 2 2 1 1 1 2 2 3 3 2 2 3 3 3 3 4 4
3 2 4 5 6 7 6 8 7 5 8 8 8 7 6 5 5 5 5 5 5 4 4 4 4 4 4 5 5 5 4 3 2 2 2 1 1 1 2 2 3 3 2 3 3 3 3 3 4
2 2 2 3 4 8 7 8 7 5 6 5 5 4 4 3 4 4 4 4 4 3 3 4 4 4 4 4 5 5 5 4 3 3 2 2 1 1 1 2 2 2 2 3 3 3 4 3 4
2 3 3 4 5 6 2 7 9 3 3 4 4 3 2 2 3 4 4 4 4 4 4 4 4 4 4 4 5 5 4 4 4 4 3 2 2 1 2 2 2 2 2 3 2 3 3 4 4
4 4 4 4 4 3 4 9 5 2 2 3 2 2 1 2 2 3 4 4 4 4 4 4 4 4 4 4 4 4 4 3 3 3 3 3 2 2 2 2 2 2 2 2 2 2 3 3 4
4 5 3 3 3 5 5 6 6 2 2 2 1 1 1 2 2 3 3 3 4 4 4 4 4 4 4 4 4 4 4 3 3 3 3 2 2 2 2 2 2 2 2 2 2 2 3 3 3
3 1 3 4 4 6 5 6 4 2 2 2 2 3 2 1 1 2 2 3 3 3 3 3 3 4 4 4 4 3 4 3 3 3 3 3 3 3 3 3 3 3 3 2 3 2 2 3 3
3 3 3 3 4 5 5 3 1 3 3 3 3 3 3 2 2 2 2 2 2 2 3 3 3 3 3 4 4 4 4 3 3 3 3 3 3 3 3 3 3 3 3 3 3 2 2 3 3
4 4 5 4 4 5 5 5 2 3 4 4 4 3 2 2 2 2 2 2 2 2 2 3 3 3 3 3 3 4 3 3 4 3 3 3 3 3 2 2 3 3 3 3 3 3 3 4 4
Wind_Direction
314 277 239 228 220 223 227 202 202 178 175 135 125 204 212 162 346 60 80 134 132 140 138 138 126 119 116 114 111 108 105 103 101 98 96 98 99 97 94 94 96 96 99 98 97 95 93 91 89
299 249 223 228 234 223 211 195 194 181 129 137 149 182 170 113 50 81 125 133 142 138 138 134 119 119 116 115 113 112 107 104 104 101 97 96 98 99 99 97 98 98 99 99 100 98 95 93 92
239 254 234 219 229 233 201 170 174 148 150 179 159 161 323 89 101 110 117 143 146 139 137 121 114 117 119 118 116 112 110 107 106 104 99 96 95 96 99 101 100 101 102 102 101 101 100 97 94
226 200 223 233 224 229 226 164 158 158 158 184 182 148 124 59 55 93 127 149 146 139 136 120 117 116 114 117 117 115 112 110 110 107 102 97 96 95 93 99 101 104 106 107 106 103 101 99 96
231 218 214 225 229 220 224 215 192 191 172 169 190 162 132 94 84 116 138 146 142 136 131 124 112 116 114 110 109 112 114 112 110 106 101 99 97 99 99 99 102 106 109 113 113 108 104 101 98
200 218 225 224 220 217 213 205 201 204 178 164 185 169 121 105 122 131 140 144 142 136 133 127 115 111 113 113 108 106 110 111 111 106 100 100 99 98 104 101 104 107 107 108 113 108 106 104 101
223 219 233 230 222 218 204 191 207 199 188 175 189 171 137 136 130 137 138 135 135 134 134 134 137 128 117 109 105 98 97 104 101 94 90 87 90 95 101 103 102 106 109 107 112 111 109 110 105
252 224 224 223 223 219 181 185 209 217 194 134 201 196 152 144 140 140 136 134 135 135 137 137 136 136 138 131 105 94 91 92 94 87 76 76 89 99 93 120 107 106 112 112 115 118 115 114 110
237 231 226 219 220 209 174 188 169 206 173 170 202 301 81 129 142 144 146 147 147 145 145 141 139 134 131 130 111 107 99 90 104 102 85 106 146 143 135 105 101 107 114 118 119 126 122 119 113
218 231 232 230 239 211 183 201 183 187 192 199 193 176 140 150 161 166 170 170 168 166 159 150 149 141 133 125 127 135 134 132 140 138 141 159 149 135 121 96 106 112 113 122 121 128 141 161 149
215 235 232 229 246 236 204 214 210 215 219 222 217 190 172 177 181 184 182 180 179 173 162 162 161 155 158 151 145 136 139 147 159 152 157 190 165 161 176 169 158 158 159 157 148 166 166 171 159
212 235 247 241 241 238 229 215 219 235 246 275 237 193 180 190 195 197 189 185 180 176 174 175 171 173 179 172 153 153 156 171 157 183 198 210 205 204 192 206 192 190 182 177 181 185 168 171 170
220 229 237 250 246 248 244 240 245 241 249 249 217 194 193 200 206 208 201 189 186 187 183 182 176 182 181 171 161 156 168 189 169 240 230 229 230 224 208 211 202 198 188 183 186 189 179 179 177
211 226 245 257 248 243 244 255 241 244 236 222 208 207 204 207 211 209 203 200 199 198 194 186 180 184 186 182 184 185 177 184 217 236 259 245 243 241 229 216 212 204 196 190 195 194 182 181 176
201 226 241 242 242 241 250 248 232 241 225 223 218 217 212 215 212 215 214 210 210 204 196 190 188 185 189 190 196 190 183 185 208 237 240 233 236 242 239 222 219 209 197 194 192 192 191 184 181
203 222 234 216 228 226 241 252 235 232 225 229 226 223 222 222 221 220 217 213 211 205 196 193 190 187 195 192 194 191 180 181 197 232 246 235 233 238 244 235 224 217 202 199 195 196 192 187 190
209 234 244 239 214 227 236 260 256 237 240 240 234 231 231 228 228 220 211 211 210 206 200 195 191 188 193 190 186 184 164 167 196 209 250 257 242 233 234 244 235 223 211 203 201 203 199 188 191
221 234 245 247 232 243 247 258 263 252 254 250 241 235 233 233 231 221 208 208 206 202 203 202 191 190 186 184 183 180 164 170 196 205 234 266 254 242 233 232 230 225 214 204 202 199 200 196 190
247 242 256 271 287 262 256 264 265 256 247 243 238 237 234 234 229 210 206 202 198 194 198 201 195 191 189 191 194 193 200 204 200 214 229 234 251 250 242 237 224 227 217 208 204 197 190 189 186
233 245 259 272 282 272 275 273 267 251 235 235 237 237 236 229 219 207 202 198 199 195 197 198 198 195 197 198 199 205 205 212 217 214 222 231 246 241 242 237 227 227 223 209 205 195 193 188 194
243 246 254 268 291 256 281 268 236 228 232 234 237 237 233 228 222 211 207 203 202 198 201 202 198 197 197 191 178 165 177 202 208 218 226 238 245 242 234 236 232 228 230 221 210 205 208 198 195
248 252 253 257 270 267 271 278 242 221 228 231 234 232 230 227 223 215 213 210 209 206 201 203 200 198 196 192 188 186 195 206 220 222 228 236 242 243 236 229 227 225 232 233 218 214 220 210 199
255 272 250 256 257 267 239 255 259 215 234 231 229 227 228 227 223 218 216 215 208 200 194 194 195 198 197 199 202 202 204 208 204 204 209 211 234 243 233 228 222 221 225 231 223 214 213 215 209
194 200 224 229 238 249 236 243 264 222 237 239 232 235 234 225 220 220 214 205 195 187 184 185 188 195 197 201 207 211 208 204 199 203 206 215 217 228 226 224 218 214 214 221 222 211 213 216 213
214 215 222 218 220 241 208 241 257 272 266 270 267 254 238 228 217 210 205 199 193 189 186 186 188 194 197 199 208 214 213 209 209 208 209 208 211 230 226 219 215 212 211 212 216 210 213 216 213
213 233 241 248 247 256 212 239 258 332 310 281 259 242 242 227 227 220 210 203 195 190 190 191 195 200 200 200 206 207 202 206 210 209 210 210 212 220 224 220 218 212 208 211 215 218 218 210 212
197 218 268 274 280 267 239 259 278 259 258 246 229 221 236 237 241 232 211 201 192 190 196 197 200 204 203 202 204 202 199 200 203 207 212 212 209 209 208 213 215 216 210 211 212 217 223 212 212
287 203 198 221 238 248 251 252 264 273 251 234 238 234 234 246 249 235 211 200 199 197 196 196 198 207 209 205 202 204 204 205 205 206 208 213 212 205 205 206 212 215 211 213 214 215 220 215 214
187 195 225 233 260 258 258 254 281 270 292 274 259 251 241 238 243 236 218 205 199 196 194 194 196 201 203 202 200 201 203 202 205 210 208 210 213 211 210 209 209 210 211 211 213 213 215 216 216
247 228 211 231 233 245 266 273 30 291 293 285 280 269 254 245 235 226 217 205 199 199 200 201 202 202 203 201 199 204 201 199 205 212 209 207 209 210 214 215 212 211 212 213 216 218 216 219 218